Wind_Speed
28 27 27 27 27 27 26 26 26 25 25 25 25 25 25 24 25 25 26 26 26 27 25 26 26 26 26 25 24 24 25 25 25 25 25 26 26 26 25 25 25 25 24
28 27 27 27 28 27 27 28 27 26 26 26 27 26 26 26 26 28 28 28 28 28 27 27 27 28 28 27 27 26 26 26 27 26 27 27 27 27 27 27 27 27 26
29 29 29 29 29 29 29 29 28 27 27 27 27 27 28 27 27 28 28 29 29 29 28 28 28 29 29 29 29 29 28 28 27 27 27 28 28 28 29 28 28 29 28
31 31 30 30 30 30 30 30 29 29 28 27 27 28 28 28 28 28 29 29 29 30 30 30 30 30 30 30 30 30 30 29 28 28 28 29 29 29 30 31 30 30 30
31 31 30 31 30 30 30 30 29 29 28 28 28 29 29 29 29 29 29 30 31 31 31 31 32 32 31 31 31 31 31 31 30 30 30 30 30 30 30 31 32 31 31
31 30 29 30 30 30 29 29 29 29 29 28 29 29 29 29 29 29 30 31 31 32 32 31 31 31 32 32 32 32 32 32 32 32 31 31 31 32 31 32 33 33 33
30 30 30 30 30 29 29 29 29 29 28 29 29 30 30 30 30 31 31 31 31 32 33 33 32 32 32 32 33 33 34 34 34 34 33 33 32 33 33 33 33 33 34
30 30 30 30 30 29 29 28 28 29 28 29 30 30 30 29 30 30 31 31 32 32 32 32 32 32 32 32 33 33 34 35 36 36 35 35 35 33 34 35 35 35 35
30 30 30 30 30 29 29 29 29 29 29 30 30 30 30 29 30 30 30 30 30 31 31 31 31 31 32 32 32 32 33 35 36 37 37 37 37 36 35 37 37 37 36
30 30 30 30 30 30 29 29 29 30 30 30 30 31 31 31 31 30 30 30 30 30 30 31 31 31 31 31 32 33 33 34 35 36 37 38 38 39 38 37 38 38 38
30 30 30 29 29 30 29 29 29 29 29 29 29 30 30 31 31 30 29 29 30 30 30 31 30 31 32 32 32 32 33 33 34 35 36 37 38 39 39 38 38 38 38
29 29 29 28 28 29 29 28 28 28 29 29 29 29 30 31 30 31 30 30 29 29 30 30 30 30 32 32 32 32 32 33 34 35 36 37 38 38 39 38 37 38 38
29 28 28 28 28 28 29 28 28 28 29 29 29 29 30 30 30 31 31 30 30 30 31 30 31 30 31 32 32 31 31 33 34 35 36 37 38 39 39 39 38 39 39
28 28 28 27 27 27 27 27 27 28 29 29 29 30 30 30 30 30 30 30 29 29 29 29 30 30 29 30 31 31 31 32 33 34 36 37 39 39 39 40 39 39 39
28 28 27 26 26 26 26 25 25 26 26 27 28 28 29 29 29 29 29 29 28 27 28 28 28 29 29 29 30 31 31 32 33 34 36 37 38 39 41 41 41 40 40
27 27 26 25 25 25 24 25 25 25 25 26 26 27 27 27 27 28 28 27 27 27 25 26 26 27 28 28 29 30 30 31 32 33 35 36 37 38 39 41 41 41 40
26 26 24 24 24 23 24 24 25 26 26 26 26 26 26 27 26 27 27 26 26 25 25 25 26 26 26 27 27 28 29 31 32 32 33 34 35 36 37 37 38 40 41
25 24 24 24 24 23 24 25 26 26 25 26 26 26 26 26 25 25 25 24 24 24 24 23 24 25 25 25 25 26 28 29 30 30 31 32 33 34 35 35 36 37 38
24 24 24 24 24 23 24 24 25 25 24 25 25 26 25 24 24 23 23 23 23 24 24 24 23 24 24 24 25 26 26 27 27 28 28 28 29 31 33 34 35 35 36
23 23 23 24 23 23 23 23 24 24 24 25 25 24 23 23 23 22 23 23 23 23 24 24 24 24 24 24 24 25 24 24 25 26 26 26 26 27 30 32 34 35 35
22 22 23 23 23 23 23 23 23 23 24 23 23 22 21 20 20 21 22 22 23 23 24 25 25 25 24 24 23 24 24 23 23 24 25 26 25 26 27 29 31 33 33
22 22 22 22 23 23 22 22 22 22 22 22 21 20 20 20 20 21 22 21 22 22 22 23 23 23 23 24 24 24 24 23 23 24 24 25 25 25 26 27 28 30 31
22 21 22 22 22 22 22 22 21 21 22 21 20 20 20 20 20 20 20 20 21 21 23 23 22 22 22 22 23 23 23 23 23 24 24 24 26 26 25 26 28 29 30
22 22 21 21 21 21 22 22 22 22 22 21 21 20 20 20 20 20 19 19 19 20 21 21 21 21 22 22 22 22 23 23 23 24 23 23 24 25 25 25 26 28 30
21 21 21 20 21 22 23 22 22 22 22 21 20 20 20 20 20 19 19 19 20 20 20 21 21 21 21 21 21 21 21 21 21 22 24 24 24 25 25 25 27 28 29
20 20 20 20 21 22 22 22 22 22 21 20 20 20 20 19 19 19 20 20 20 21 21 21 21 21 21 21 21 22 21 21 21 21 22 23 23 24 24 24 26 27 29
Wind_Direction
295 294 293 294 293 291 288 288 289 289 287 284 283 282 281 279 275 276 275 274 275 272 269 269 269 268 266 263 260 259 258 257 256 253 249 247 245 244 242 243 243 242 241
294 293 293 293 292 291 290 288 287 286 286 285 283 282 281 281 278 276 275 274 273 271 269 269 267 266 265 263 261 259 258 257 255 253 251 250 248 245 243 244 244 243 242
294 294 292 292 290 289 290 288 288 287 286 285 283 282 281 281 281 278 274 273 271 269 268 268 267 267 265 263 261 259 258 258 257 255 252 250 250 246 243 243 244 244 244
296 295 293 292 291 289 289 288 287 287 285 284 283 284 283 281 280 278 274 272 271 269 267 266 266 266 264 262 260 259 258 258 258 256 254 251 249 248 246 244 244 243 244
296 296 295 294 293 291 290 288 288 286 285 285 284 284 284 282 279 277 276 273 272 272 270 268 266 266 264 261 259 259 258 257 257 257 254 253 251 248 246 245 244 243 243
296 297 297 296 294 292 291 288 288 287 286 285 285 284 283 282 280 278 276 275 274 273 272 270 268 266 264 262 259 259 258 256 256 257 257 256 254 250 248 247 245 244 244
297 297 297 297 295 294 291 288 288 287 286 285 285 285 284 282 283 280 278 275 273 273 272 271 270 267 264 262 260 260 258 257 256 256 256 255 255 251 248 248 247 246 245
298 297 296 296 295 293 292 289 287 286 286 285 285 285 285 285 284 282 280 278 274 273 272 272 269 267 265 263 262 260 258 257 256 255 254 253 253 252 249 249 249 248 246
298 297 296 296 295 294 291 288 286 287 287 287 287 287 287 286 284 282 280 278 275 274 272 272 270 267 266 265 264 261 260 258 257 256 255 253 253 253 252 250 249 249 247
299 300 298 295 295 294 292 290 288 288 288 289 289 288 287 288 286 282 280 277 275 274 272 272 270 267 266 265 262 262 261 259 258 257 257 255 254 252 252 251 249 249 248
303 302 301 298 297 297 295 292 290 288 288 290 290 290 289 288 287 284 280 278 276 276 274 273 272 269 267 265 263 262 259 259 259 258 257 255 254 253 250 250 249 249 247
304 303 302 300 299 298 297 293 290 290 290 290 290 290 291 290 287 284 283 280 278 276 275 275 273 271 270 267 265 263 261 260 260 260 258 256 254 252 250 250 249 248 246
305 303 302 301 300 297 296 293 291 290 290 291 291 290 290 289 287 285 284 281 279 278 276 276 274 273 270 268 267 265 264 262 261 260 259 256 253 252 251 249 249 248 247
305 305 302 301 300 299 297 293 293 292 292 292 292 291 291 289 287 287 285 282 279 277 277 276 275 274 271 270 268 266 265 263 262 261 259 257 254 252 251 249 249 249 247
309 307 305 304 303 301 298 295 295 296 294 294 294 292 292 289 287 287 286 283 279 277 276 275 274 273 273 272 269 268 266 265 264 262 260 258 255 253 250 249 248 249 248
311 310 307 305 303 302 301 300 299 299 298 296 296 295 292 290 288 286 285 284 281 279 279 276 274 273 272 270 270 269 268 266 264 263 261 258 256 255 252 249 247 247 247
313 312 309 307 307 305 304 305 303 302 301 299 298 296 294 292 290 287 285 283 282 281 280 277 274 273 272 271 271 271 269 267 264 262 261 259 258 256 253 250 248 247 246
314 315 312 310 309 307 306 307 305 303 301 300 299 299 296 295 293 290 286 284 282 281 279 278 276 274 274 273 272 272 270 267 265 263 262 259 257 255 253 250 248 246 246
316 316 314 314 313 311 308 308 307 306 305 302 300 300 299 296 293 291 287 284 282 281 280 281 278 277 277 277 277 275 272 271 269 267 265 261 259 256 252 248 245 244 245
320 319 318 318 317 316 313 311 310 309 307 305 303 303 303 299 295 292 290 288 285 285 283 282 280 280 281 282 282 280 277 274 272 269 267 263 261 258 253 248 245 244 245
324 323 321 321 320 318 315 312 311 311 312 310 307 306 304 302 299 295 294 292 288 288 286 285 282 282 282 283 283 281 280 276 273 271 269 265 262 258 253 249 246 244 245
325 325 324 323 321 320 318 316 314 314 316 315 314 310 305 301 301 300 298 294 291 289 288 286 285 284 282 281 282 281 280 275 271 270 268 265 263 258 252 249 248 246 246
328 326 327 327 324 322 322 321 321 319 319 318 317 315 311 307 306 305 301 299 296 293 291 289 287 288 285 283 282 281 280 277 272 270 268 265 263 259 255 252 248 247 247
330 330 331 332 330 329 329 327 324 323 323 321 318 315 314 311 308 306 304 302 300 298 295 292 290 289 287 286 284 281 279 277 272 271 269 266 262 258 255 253 250 249 249
331 332 335 337 336 334 333 332 330 329 327 325 321 319 317 316 314 311 307 305 302 300 298 294 291 291 288 286 284 281 280 277 275 273 269 266 262 259 256 254 253 250 249
337 338 338 338 337 335 335 334 334 333 331 329 326 324 322 321 318 314 310 309 306 301 299 296 293 292 290 287 285 283 281 278 275 273 271 268 263 259 257 256 255 252 251
Height
5836 5834 5833 5831 5830 5829 5828 5827 5827 5826 5825 5825 5824 5824 5823 5821 5821 5821 5822 5822 5823 5823 5823 5823 5824 5825 5826 5827 5828 5829 5830 5831 5832 5833 5835 5836 5838 5840 5842 5844 5846 5848 5850
5830 5829 5827 5826 5825 5823 5822 5821 5821 5820 5819 5819 5818 5818 5817 5816 5816 5815 5816 5816 5816 5816 5816 5817 5818 5819 5820 5821 5821 5823 5824 5825 5826 5827 5829 5830 5832 5834 5836 5838 5840 5842 5845
5825 5823 5821 5820 5818 5817 5815 5815 5814 5813 5812 5812 5812 5811 5811 5810 5810 5809 5809 5810 5810 5810 5810 5810 5811 5812 5812 5813 5815 5816 5817 5818 5819 5821 5822 5824 5826 5828 5830 5832 5834 5837 5839
5818 5817 5815 5813 5811 5810 5809 5808 5807 5806 5805 5805 5805 5804 5804 5803 5803 5802 5802 5802 5802 5802 5803 5803 5803 5804 5805 5806 5807 5808 5810 5811 5812 5814 5815 5817 5819 5821 5823 5826 5828 5830 5832
5813 5811 5809 5807 5805 5803 5802 5801 5800 5799 5798 5798 5797 5797 5796 5796 5795 5794 5794 5794 5795 5795 5795 5795 5796 5796 5797 5798 5799 5800 5802 5803 5805 5807 5808 5810 5812 5814 5816 5818 5821 5823 5826
5807 5805 5803 5801 5799 5797 5795 5794 5793 5792 5791 5790 5790 5789 5789 5788 5787 5787 5786 5786 5786 5786 5786 5787 5787 5788 5788 5789 5790 5791 5793 5794 5796 5798 5800 5802 5804 5806 5809 5811 5813 5816 5819
5801 5799 5797 5795 5793 5791 5789 5787 5786 5785 5784 5783 5783 5782 5781 5780 5779 5779 5778 5778 5778 5778 5778 5778 5778 5779 5779 5780 5781 5783 5784 5785 5787 5789 5792 5794 5796 5798 5800 5803 5805 5808 5811
5795 5793 5790 5788 5786 5784 5782 5780 5779 5778 5777 5776 5775 5774 5773 5773 5771 5770 5770 5769 5769 5769 5769 5769 5770 5770 5771 5771 5772 5773 5775 5776 5778 5780 5782 5784 5787 5788 5791 5794 5797 5800 5802
5789 5786 5784 5781 5779 5777 5775 5773 5772 5771 5770 5768 5767 5766 5764 5764 5763 5762 5761 5760 5760 5760 5760 5761 5761 5761 5762 5763 5763 5764 5766 5767 5769 5771 5773 5775 5777 5780 5782 5785 5788 5790 5793
5782 5779 5776 5774 5771 5769 5767 5766 5765 5763 5762 5760 5759 5757 5756 5755 5754 5754 5753 5752 5751 5751 5751 5752 5752 5752 5753 5753 5754 5755 5756 5757 5759 5761 5763 5765 5768 5770 5773 5775 5778 5781 5784
5775 5772 5769 5767 5764 5762 5760 5759 5757 5756 5754 5753 5751 5750 5748 5747 5745 5745 5744 5743 5743 5742 5742 5742 5743 5743 5743 5743 5744 5746 5747 5748 5749 5751 5753 5755 5757 5760 5763 5766 5768 5771 5774
5768 5765 5763 5760 5758 5756 5753 5751 5750 5748 5747 5745 5744 5742 5740 5739 5737 5736 5736 5735 5734 5734 5733 5733 5733 5733 5734 5734 5735 5736 5737 5738 5740 5741 5743 5745 5747 5750 5753 5756 5758 5761 5764
5762 5759 5756 5754 5751 5749 5746 5744 5743 5741 5739 5738 5736 5734 5733 5731 5729 5728 5727 5726 5726 5725 5725 5724 5724 5723 5724 5724 5725 5726 5727 5728 5730 5731 5733 5735 5737 5739 5742 5745 5748 5751 5754
5756 5752 5750 5747 5744 5742 5740 5738 5736 5734 5732 5730 5728 5726 5725 5723 5721 5719 5718 5718 5717 5717 5716 5716 5715 5714 5715 5715 5716 5716 5717 5718 5720 5721 5722 5724 5726 5729 5732 5735 5738 5741 5744
5750 5747 5744 5741 5738 5736 5733 5731 5729 5727 5725 5723 5721 5718 5717 5715 5713 5711 5710 5709 5709 5709 5709 5708 5707 5706 5706 5706 5706 5707 5708 5709 5710 5711 5712 5713 5715 5718 5721 5724 5727 5730 5733
5744 5741 5738 5735 5733 5730 5727 5725 5723 5720 5718 5716 5713 5711 5709 5707 5705 5703 5702 5701 5700 5700 5700 5700 5699 5698 5697 5697 5697 5697 5698 5699 5699 5700 5701 5702 5704 5706 5709 5712 5715 5719 5722
5739 5736 5733 5730 5727 5724 5722 5719 5716 5714 5711 5709 5706 5704 5701 5699 5697 5695 5694 5694 5693 5692 5692 5692 5690 5689 5688 5688 5688 5688 5688 5689 5689 5690 5691 5692 5694 5695 5697 5700 5704 5708 5712
5735 5731 5728 5725 5722 5719 5716 5713 5710 5707 5705 5702 5699 5697 5694 5692 5690 5688 5687 5686 5685 5684 5684 5683 5682 5681 5680 5680 5679 5679 5679 5679 5679 5680 5681 5682 5683 5685 5687 5690 5693 5697 5701
5730 5726 5723 5720 5716 5713 5710 5707 5704 5701 5698 5696 5693 5690 5687 5685 5683 5681 5680 5678 5678 5677 5676 5676 5675 5674 5673 5672 5671 5671 5670 5670 5670 5671 5671 5672 5673 5675 5677 5680 5683 5687 5691
5725 5722 5718 5715 5711 5708 5705 5702 5699 5695 5692 5689 5686 5683 5681 5679 5677 5675 5673 5671 5670 5670 5669 5668 5667 5666 5666 5665 5664 5663 5662 5662 5662 5662 5663 5664 5665 5666 5668 5671 5674 5677 5681
5722 5718 5714 5710 5707 5703 5700 5696 5693 5690 5687 5683 5680 5678 5675 5673 5671 5669 5667 5665 5664 5663 5662 5661 5660 5660 5659 5657 5656 5655 5655 5654 5654 5654 5655 5656 5657 5658 5659 5662 5664 5668 5671
5718 5714 5710 5706 5703 5699 5695 5691 5688 5685 5682 5678 5675 5672 5670 5668 5665 5663 5661 5659 5658 5657 5655 5654 5653 5652 5651 5650 5649 5648 5647 5647 5647 5647 5647 5648 5649 5650 5651 5654 5656 5658 5662
5714 5710 5707 5703 5699 5695 5691 5687 5684 5680 5677 5674 5670 5668 5665 5663 5660 5658 5656 5654 5652 5650 5649 5648 5647 5645 5644 5643 5642 5641 5640 5640 5640 5640 5640 5641 5641 5642 5644 5646 5648 5650 5653
5712 5708 5704 5700 5696 5692 5688 5684 5680 5676 5672 5669 5666 5663 5660 5658 5655 5653 5651 5649 5647 5645 5643 5642 5640 5639 5637 5636 5635 5634 5633 5633 5633 5632 5632 5633 5634 5635 5636 5638 5640 5642 5644
5709 5705 5701 5697 5693 5689 5685 5680 5676 5672 5668 5665 5662 5659 5656 5653 5650 5648 5646 5644 5642 5639 5638 5636 5634 5633 5631 5630 5628 5627 5627 5626 5626 5625 5624 5625 5626 5626 5628 5630 5631 5633 5635
5707 5703 5698 5694 5690 5686 5682 5677 5673 5669 5665 5662 5658 5655 5652 5649 5646 5643 5641 5638 5636 5634 5632 5630 5628 5626 5625 5624 5622 5621 5620 5619 5619 5619 5618 5618 5618 5619 5620 5622 5623 5625 5626